GW6909 Weather Reports


Display with metric or nautical units.
time (UTC)temp
F
wind
direction
speed
MPH
gust
MPH
rain 1hr
in
rain 24hr
in
rain mn
in
humidity
%
barometer
mb
20260510225415 74 308 1.0 2.0 0.00 0.00 0.00 42 1019.6
20260510224910 74 229 1.0 2.0 0.00 0.00 0.00 42 1019.4
20260510224407 75 284 2.0 2.0 0.00 0.00 0.00 41 1019.3
20260510223903 75 30 2.0 2.0 0.00 0.00 0.00 41 1019.5
20260510223401 76 27 2.0 2.0 0.00 0.00 0.00 39 1019.4
20260510222858 77 54 2.0 4.0 0.00 0.00 0.00 38 1019.1
20260510222356 77 243 2.0 3.0 0.00 0.00 0.00 37 1019.3
20260510221856 78 337 1.0 1.0 0.00 0.00 0.00 37 1019.1
20260510221353 78 26 1.0 2.0 0.00 0.00 0.00 36 1019.2
20260510220849 79 301 2.0 2.0 0.00 0.00 0.00 34 1019.1
20260510220346 78 50 1.0 2.0 0.00 0.00 0.00 36 1019.1
20260510215842 78 41 0.0 1.0 0.00 0.00 0.00 35 1019.0
20260510215339 79 27 1.0 1.0 0.00 0.00 0.00 34 1019.0
20260510214837 79 31 0.0 1.0 0.00 0.00 0.00 36 1018.9
20260510214334 79 260 2.0 3.0 0.00 0.00 0.00 35 1019.0
20260510213831 80 176 0.0 1.0 0.00 0.00 0.00 33 1019.2
20260510213327 79 337 1.0 1.0 0.00 0.00 0.00 34 1019.2
20260510212824 79 14 1.0 1.0 0.00 0.00 0.00 34 1019.0
20260510212321 80 6 2.0 2.0 0.00 0.00 0.00 33 1019.1
20260510211818 79 12 2.0 3.0 0.00 0.00 0.00 32 1019.0
20260510211313 79 237 2.0 2.0 0.00 0.00 0.00 34 1019.1
20260510210809 79 33 1.0 1.0 0.00 0.00 0.00 33 1019.2
20260510210304 78 23 2.0 2.0 0.00 0.00 0.00 34 1019.1
20260510205804 78 32 0.0 1.0 0.00 0.00 0.00 34 1019.3
20260510205259 78 25 2.0 2.0 0.00 0.00 0.00 34 1019.1
20260510204755 77 341 1.0 1.0 0.00 0.00 0.00 35 1019.1
20260510204252 77 50 1.0 2.0 0.00 0.00 0.00 36 1019.3
20260510203749 77 9 1.0 1.0 0.00 0.00 0.00 34 1019.2
20260510203247 78 36 1.0 1.0 0.00 0.00 0.00 35 1019.1
20260510202746 79 287 2.0 3.0 0.00 0.00 0.00 33 1019.2
20260510202242 79 24 3.0 3.0 0.00 0.00 0.00 34 1019.4
20260510201740 79 35 0.0 1.0 0.00 0.00 0.00 34 1019.3
20260510201236 79 24 1.0 2.0 0.00 0.00 0.00 34 1019.4
20260510200733 78 243 3.0 4.0 0.00 0.00 0.00 34 1019.3
20260510200231 78 263 2.0 2.0 0.00 0.00 0.00 34 1019.5
20260510195727 80 230 3.0 3.0 0.00 0.00 0.00 32 1019.4
20260510195224 80 34 1.0 2.0 0.00 0.00 0.00 31 1019.5
20260510194723 80 231 1.0 2.0 0.00 0.00 0.00 34 1019.5
20260510194220 80 33 1.0 1.0 0.00 0.00 0.00 38 1019.4
20260510193715 80 47 1.0 2.0 0.00 0.00 0.00 32 1019.5
20260510193210 79 28 0.0 1.0 0.00 0.00 0.00 33 1019.4
20260510192706 79 14 0.0 0.0 0.00 0.00 0.00 38 1019.6
20260510192201 79 32 3.0 3.0 0.00 0.00 0.00 34 1020.0
20260510191658 78 19 3.0 3.0 0.00 0.00 0.00 36 1019.8
20260510191155 76 59 0.0 1.0 0.00 0.00 0.00 35 1019.9
20260510190652 77 256 2.0 2.0 0.00 0.00 0.00 37 1020.0
20260510190149 79 34 1.0 1.0 0.00 0.00 0.00 36 1019.8
20260510185646 78 42 1.0 2.0 0.00 0.00 0.00 36 1019.8
20260510185144 78 30 1.0 2.0 0.00 0.00 0.00 35 1019.5
20260510184640 76 312 1.0 1.0 0.00 0.00 0.00 36 1019.8
20260510184136 77 31 2.0 3.0 0.00 0.00 0.00 35 1019.6
20260510183632 79 44 1.0 1.0 0.00 0.00 0.00 35 1019.6
20260510183127 78 340 0.0 1.0 0.00 0.00 0.00 35 1019.6
20260510182624 77 339 1.0 1.0 0.00 0.00 0.00 32 1019.6
20260510182119 76 24 2.0 2.0 0.00 0.00 0.00 35 1019.6
20260510181617 77 31 1.0 2.0 0.00 0.00 0.00 35 1019.5
20260510181113 77 26 0.0 1.0 0.00 0.00 0.00 33 1019.8
20260510180609 77 27 2.0 4.0 0.00 0.00 0.00 33 1019.9
20260510180108 76 35 1.0 1.0 0.00 0.00 0.00 33 1019.8
20260510175603 77 24 2.0 3.0 0.00 0.00 0.00 34 1020.2
20260510175058 78 28 4.0 4.0 0.00 0.00 0.00 32 1019.9
20260510174557 78 30 2.0 3.0 0.00 0.00 0.00 31 1020.0
20260510174053 78 19 3.0 3.0 0.00 0.00 0.00 31 1019.9
20260510173549 79 40 2.0 2.0 0.00 0.00 0.00 32 1020.0
20260510173046 78 1 0.0 0.0 0.00 0.00 0.00 32 1020.0
20260510172542 79 150 1.0 2.0 0.00 0.00 0.00 34 1020.0
20260510172038 78 171 2.0 2.0 0.00 0.00 0.00 35 1020.3
20260510171535 78 249 3.0 3.0 0.00 0.00 0.00 33 1020.1
20260510171032 78 50 0.0 0.0 0.00 0.00 0.00 31 1020.1
20260510170528 77 40 0.0 0.0 0.00 0.00 0.00 30 1020.2
20260510170025 77 291 1.0 2.0 0.00 0.00 0.00 31 1020.3
20260510165521 77 30 1.0 1.0 0.00 0.00 0.00 32 1020.2
20260510165017 77 35 0.0 1.0 0.00 0.00 0.00 33 1020.2
20260510164514 77 27 1.0 1.0 0.00 0.00 0.00 32 1020.3
20260510164010 77 174 2.0 3.0 0.00 0.00 0.00 32 1020.4
20260510163506 76 352 1.0 2.0 0.00 0.00 0.00 34 1020.6
20260510163001 76 292 2.0 2.0 0.00 0.00 0.00 31 1020.4
20260510162458 76 112 1.0 1.0 0.00 0.00 0.00 34 1020.4
20260510161954 75 17 1.0 1.0 0.00 0.00 0.00 33 1020.5
20260510161450 74 51 0.0 1.0 0.00 0.00 0.00 33 1020.6
20260510160948 73 329 0.0 1.0 0.00 0.00 0.00 35 1020.5
20260510160445 74 38 2.0 2.0 0.00 0.00 0.00 32 1020.6
20260510155943 74 51 1.0 1.0 0.00 0.00 0.00 34 1020.7
20260510155440 73 33 2.0 3.0 0.00 0.00 0.00 35 1020.5
20260510154937 72 26 0.0 0.0 0.00 0.00 0.00 36 1020.7
20260510154433 73 21 4.0 6.0 0.00 0.00 0.00 35 1020.7
20260510153931 72 27 3.0 3.0 0.00 0.00 0.00 34 1020.5
20260510153428 72 145 0.0 1.0 0.00 0.00 0.00 35 1020.5
20260510152925 72 268 2.0 2.0 0.00 0.00 0.00 34 1020.7
20260510152423 72 247 3.0 3.0 0.00 0.00 0.00 39 1020.9
20260510151919 70 50 0.0 0.0 0.00 0.00 0.00 41 1020.4
20260510151416 70 227 3.0 3.0 0.00 0.00 0.00 40 1020.6
20260510150912 71 257 2.0 3.0 0.00 0.00 0.00 37 1020.7
20260510150408 70 1 1.0 1.0 0.00 0.00 0.00 37 1020.8
20260510145904 70 251 1.0 2.0 0.00 0.00 0.00 42 1020.7
20260510145401 70 337 2.0 3.0 0.00 0.00 0.00 40 1020.7
20260510144858 69 328 1.0 1.0 0.00 0.00 0.00 37 1020.8
20260510144355 69 299 3.0 4.0 0.00 0.00 0.00 39 1020.8
20260510143855 68 32 3.0 3.0 0.00 0.00 0.00 42 1020.8
20260510143351 68 57 0.0 0.0 0.00 0.00 0.00 41 1020.7
20260510142848 68 19 1.0 1.0 0.00 0.00 0.00 44 1020.6
20260510142344 67 39 1.0 1.0 0.00 0.00 0.00 43 1020.7
20260510141841 67 28 3.0 3.0 0.00 0.00 0.00 44 1020.6
20260510141339 66 59 0.0 0.0 0.00 0.00 0.00 46 1020.8
20260510140836 66 28 4.0 4.0 0.00 0.00 0.00 46 1020.7
20260510140332 66 35 2.0 4.0 0.00 0.00 0.00 45 1020.6
20260510135825 66 25 2.0 3.0 0.00 0.00 0.00 45 1020.5
20260510135321 66 33 2.0 3.0 0.00 0.00 0.00 48 1020.5
20260510134819 66 38 0.0 0.0 0.00 0.00 0.00 45 1020.6
20260510134316 66 33 0.0 1.0 0.00 0.00 0.00 45 1020.8
20260510133811 65 31 1.0 2.0 0.00 0.00 0.00 45 1020.9
20260510133308 65 238 1.0 2.0 0.00 0.00 0.00 44 1020.6
20260510132803 64 222 2.0 2.0 0.00 0.00 0.00 43 1020.6
20260510132305 64 54 0.0 0.0 0.00 0.00 0.00 50 1020.5
20260510131758 64 66 0.0 0.0 0.00 0.00 0.00 47 1020.4
20260510131256 63 40 0.0 0.0 0.00 0.00 0.00 49 1020.5
20260510130752 63 70 0.0 0.0 0.00 0.00 0.00 52 1020.4
20260510130249 63 104 1.0 1.0 0.00 0.00 0.00 49 1020.3
20260510125746 62 71 0.0 0.0 0.00 0.00 0.00 47 1020.3
20260510125242 62 34 0.0 0.0 0.00 0.00 0.00 48 1020.1
20260510124738 61 28 0.0 0.0 0.00 0.00 0.00 52 1020.2
20260510124236 61 0 0.0 1.0 0.00 0.00 0.00 50 1020.2
20260510123731 61 33 0.0 1.0 0.00 0.00 0.00 52 1020.2
20260510123228 60 32 0.0 0.0 0.00 0.00 0.00 52 1020.2
20260510122724 60 129 1.0 1.0 0.00 0.00 0.00 54 1020.2
20260510122220 59 66 0.0 0.0 0.00 0.00 0.00 55 1020.3
20260510121717 59 69 1.0 1.0 0.00 0.00 0.00 61 1020.0
20260510121215 59 86 1.0 1.0 0.00 0.00 0.00 59 1019.9
20260510120711 59 63 0.0 0.0 0.00 0.00 0.00 61 1019.9
20260510120208 59 27 0.0 0.0 0.00 0.00 0.00 58 1019.9
20260510115703 58 81 0.0 0.0 0.00 0.00 0.00 61 1019.6
20260510115202 58 61 0.0 0.0 0.00 0.00 0.00 63 1019.4
20260510114657 58 59 1.0 1.0 0.00 0.00 0.00 60 1019.6
20260510114154 58 69 1.0 1.0 0.00 0.00 0.00 59 1019.5
20260510113649 58 59 0.0 0.0 0.00 0.00 0.00 58 1019.5
20260510113147 57 54 0.0 0.0 0.00 0.00 0.00 57 1019.2
20260510112643 57 59 0.0 1.0 0.00 0.00 0.00 61 1019.3
20260510112140 57 69 0.0 0.0 0.00 0.00 0.00 60 1019.1
20260510111636 57 48 0.0 0.0 0.00 0.00 0.00 58 1018.9
20260510111132 57 59 0.0 0.0 0.00 0.00 0.00 58 1018.8
20260510110627 58 59 0.0 0.0 0.00 0.00 0.00 58 1018.6
20260510110125 58 76 0.0 1.0 0.00 0.00 0.00 55 1018.5
20260510105620 58 74 0.0 0.0 0.00 0.00 0.00 55 1018.5
20260510105115 59 63 0.0 0.0 0.00 0.00 0.00 55 1018.2
20260510104612 59 47 0.0 0.0 0.00 0.00 0.00 49 1018.2
20260510104109 59 282 2.0 2.0 0.00 0.00 0.00 51 1018.1
20260510103606 59 51 1.0 1.0 0.00 0.00 0.00 51 1018.1
20260510103101 59 345 1.0 1.0 0.00 0.00 0.00 54 1018.4
20260510102557 59 32 0.0 1.0 0.00 0.00 0.00 55 1018.2
20260510102053 59 7 0.0 1.0 0.00 0.00 0.00 57 1018.1
20260510101551 59 35 1.0 2.0 0.00 0.00 0.00 57 1018.0
20260510101050 59 13 1.0 1.0 0.00 0.00 0.00 59 1017.9
20260510100545 59 299 1.0 2.0 0.00 0.00 0.00 60 1017.7
20260510100043 59 255 1.0 1.0 0.00 0.00 0.00 64 1017.8
20260510095539 59 1 0.0 1.0 0.00 0.00 0.00 64 1017.8
20260510095038 59 305 0.0 1.0 0.00 0.00 0.00 64 1017.7
20260510094533 59 39 1.0 2.0 0.00 0.00 0.00 64 1017.8
20260510094028 59 7 1.0 1.0 0.00 0.00 0.00 65 1017.6
20260510093524 59 308 2.0 2.0 0.00 0.00 0.00 63 1017.8
20260510093021 59 27 3.0 6.0 0.00 0.00 0.00 66 1017.5
20260510092518 59 290 1.0 1.0 0.00 0.00 0.00 67 1017.6
20260510092018 59 3 1.0 1.0 0.00 0.00 0.00 68 1017.6
20260510091515 59 25 0.0 1.0 0.00 0.00 0.00 68 1017.6
20260510091011 59 21 2.0 3.0 0.00 0.00 0.00 67 1017.5
20260510090508 58 29 1.0 1.0 0.00 0.00 0.00 68 1017.5
20260510090004 58 28 1.0 2.0 0.00 0.00 0.00 71 1017.6
20260510085459 58 302 1.0 1.0 0.00 0.00 0.00 71 1017.4
20260510084955 57 24 1.0 1.0 0.00 0.00 0.00 70 1017.4
20260510084452 58 351 0.0 1.0 0.00 0.00 0.00 73 1017.3
20260510083948 58 318 1.0 1.0 0.00 0.00 0.00 72 1017.4
20260510083445 59 307 0.0 1.0 0.00 0.00 0.00 71 1017.4
20260510082940 59 121 1.0 1.0 0.00 0.00 0.00 71 1017.2
20260510082438 59 327 1.0 1.0 0.00 0.00 0.00 70 1017.2
20260510081937 59 3 0.0 0.0 0.00 0.00 0.00 70 1017.3
20260510081433 59 277 0.0 1.0 0.00 0.00 0.00 70 1017.1
20260510080930 60 298 2.0 2.0 0.00 0.00 0.00 70 1017.2
20260510080428 60 12 1.0 1.0 0.00 0.00 0.00 70 1017.2
20260510075926 60 348 1.0 1.0 0.00 0.00 0.00 69 1017.0
20260510075424 61 17 0.0 0.0 0.00 0.00 0.00 69 1017.2
20260510074920 61 19 0.0 1.0 0.00 0.00 0.00 68 1016.9
20260510074417 61 44 0.0 0.0 0.00 0.00 0.00 67 1017.0
20260510073914 60 227 2.0 2.0 0.00 0.00 0.00 67 1016.9
20260510073409 60 21 0.0 1.0 0.00 0.00 0.00 69 1016.9
20260510072906 61 32 0.0 1.0 0.00 0.00 0.00 69 1016.7
20260510072403 61 308 1.0 1.0 0.00 0.00 0.00 69 1016.6
20260510071858 61 57 1.0 1.0 0.00 0.00 0.00 70 1016.7
20260510071355 61 37 1.0 1.0 0.00 0.00 0.00 70 1016.3
20260510070853 61 344 0.0 1.0 0.00 0.00 0.00 69 1016.5
20260510070350 61 45 3.0 4.0 0.00 0.00 0.00 69 1016.5
20260510065850 61 336 1.0 1.0 0.00 0.00 0.00 69 1016.4
20260510065347 60 9 1.0 2.0 0.00 0.00 0.00 69 1016.2
20260510064844 59 14 1.0 2.0 0.00 0.00 0.00 71 1016.4
20260510064342 59 76 1.0 2.0 0.00 0.00 0.00 72 1016.5
20260510063838 58 19 2.0 2.0 0.00 0.00 0.00 73 1016.3
20260510063334 58 7 0.0 0.0 0.00 0.00 0.00 73 1016.6
20260510062831 59 10 0.0 0.0 0.00 0.00 0.00 72 1016.7
20260510062326 59 336 1.0 1.0 0.00 0.00 0.00 73 1016.7
20260510061822 59 308 0.0 1.0 0.00 0.00 0.00 71 1016.9
20260510061319 60 37 0.0 0.0 0.00 0.00 0.00 70 1016.9
20260510060815 60 9 0.0 0.0 0.00 0.00 0.00 69 1016.7
20260510060313 60 11 1.0 1.0 0.00 0.00 0.00 70 1016.9
20260510055809 60 279 2.0 2.0 0.00 0.00 0.00 70 1017.0
20260510055308 60 35 1.0 1.0 0.00 0.00 0.00 69 1017.1
20260510054807 60 13 0.0 0.0 0.00 0.00 0.00 69 1017.4
20260510054304 60 1 1.0 1.0 0.00 0.00 0.00 69 1017.0
20260510053804 60 26 0.0 0.0 0.00 0.00 0.00 68 1017.2
20260510053259 60 32 0.0 1.0 0.00 0.00 0.00 68 1017.1
20260510052756 60 47 0.0 0.0 0.00 0.00 0.00 68 1017.1
20260510052252 60 21 0.0 0.0 0.00 0.00 0.00 69 1017.3
20260510051748 60 28 0.0 0.0 0.00 0.00 0.00 69 1017.1
20260510051245 60 26 0.0 1.0 0.00 0.00 0.00 68 1017.2
20260510050742 60 14 0.0 0.0 0.00 0.00 0.00 68 1017.4
20260510050239 61 342 0.0 1.0 0.00 0.00 0.00 68 1017.3
20260510045736 61 6 0.0 1.0 0.00 0.00 0.00 67 1017.3
20260510045232 61 22 0.0 0.0 0.00 0.00 0.00 67 1017.2
20260510044729 61 28 0.0 0.0 0.00 0.00 0.00 66 1017.3
20260510044227 61 4 0.0 1.0 0.00 0.00 0.00 66 1017.2
20260510043721 61 18 1.0 2.0 0.00 0.00 0.00 66 1017.2
20260510043219 61 52 0.0 0.0 0.00 0.00 0.00 66 1017.4
20260510042716 60 1 0.0 1.0 0.00 0.00 0.00 66 1017.4
20260510042212 60 17 0.0 1.0 0.00 0.00 0.00 66 1017.2
20260510041709 60 4 0.0 0.0 0.00 0.00 0.00 66 1017.3
20260510041206 60 9 0.0 0.0 0.00 0.00 0.00 66 1017.2
20260510040703 60 36 0.0 1.0 0.00 0.00 0.00 66 1017.3
20260510040200 60 7 0.0 0.0 0.00 0.00 0.00 66 1017.2
20260510035655 60 7 0.0 0.0 0.00 0.00 0.00 66 1017.4
20260510035151 60 10 0.0 0.0 0.00 0.00 0.00 65 1017.1
20260510034648 60 284 1.0 2.0 0.00 0.00 0.00 65 1017.2
20260510034145 60 341 0.0 1.0 0.00 0.00 0.00 64 1017.2
20260510033641 60 343 1.0 1.0 0.00 0.00 0.00 64 1017.2
20260510033139 61 359 0.0 0.0 0.00 0.00 0.00 63 1017.5
20260510032635 60 359 0.0 1.0 0.00 0.00 0.00 63 1017.2
20260510032130 60 348 1.0 1.0 0.00 0.00 0.00 64 1017.4
20260510031625 60 11 0.0 1.0 0.00 0.00 0.00 64 1017.3
20260510031122 60 7 0.0 1.0 0.00 0.00 0.00 65 1017.3
20260510030617 60 348 1.0 1.0 0.00 0.00 0.00 65 1017.2
20260510030115 60 5 0.0 1.0 0.00 0.00 0.00 64 1017.2
20260510025612 60 8 0.0 0.0 0.00 0.00 0.00 64 1017.1
20260510025109 60 354 1.0 1.0 0.00 0.00 0.00 63 1017.1
20260510024606 60 359 0.0 1.0 0.00 0.00 0.00 63 1017.3
20260510024102 60 5 1.0 1.0 0.00 0.00 0.00 63 1017.2
20260510023558 60 359 1.0 1.0 0.00 0.00 0.00 63 1017.1
20260510023056 61 358 0.0 1.0 0.00 0.00 0.00 62 1017.1
20260510022550 61 5 0.0 0.0 0.00 0.00 0.00 62 1017.0
20260510022050 61 18 0.0 0.0 0.00 0.00 0.00 61 1017.1
20260510021546 60 16 0.0 0.0 0.00 0.00 0.00 62 1016.9
20260510021044 60 353 1.0 1.0 0.00 0.00 0.00 63 1017.0
20260510020544 60 11 0.0 1.0 0.00 0.00 0.00 62 1016.5
20260510020040 60 356 0.0 1.0 0.00 0.00 0.00 62 1016.6
20260510015536 60 5 0.0 0.0 0.00 0.00 0.00 62 1016.3
20260510015032 60 4 1.0 1.0 0.00 0.00 0.00 63 1016.5
20260510014529 61 351 0.0 1.0 0.00 0.00 0.00 63 1016.3
20260510014026 62 353 1.0 1.0 0.00 0.00 0.00 59 1016.3
20260510013520 62 346 1.0 1.0 0.00 0.00 0.00 59 1016.1
20260510013017 63 347 0.0 1.0 0.00 0.00 0.00 57 1016.1
20260510012516 62 94 1.0 1.0 0.00 0.00 0.00 57 1016.1
20260510012013 62 161 1.0 1.0 0.00 0.00 0.00 59 1016.2
20260510011507 62 182 2.0 2.0 0.00 0.00 0.00 60 1016.1
20260510011003 63 358 0.0 1.0 0.00 0.00 0.00 58 1015.8
20260510010500 64 339 1.0 1.0 0.00 0.00 0.00 57 1015.9
20260510005957 63 180 2.0 2.0 0.00 0.00 0.00 56 1015.6
20260510005453 62 110 0.0 1.0 0.00 0.00 0.00 59 1015.5
20260510004951 62 344 0.0 1.0 0.00 0.00 0.00 59 1015.2
20260510004447 62 257 2.0 2.0 0.00 0.00 0.00 59 1015.2
20260510003946 62 47 0.0 1.0 0.00 0.00 0.00 57 1015.0
20260510003442 62 2 0.0 0.0 0.00 0.00 0.00 61 1014.8
20260510002942 63 161 1.0 1.0 0.00 0.00 0.00 59 1015.1
20260510002439 64 76 1.0 1.0 0.00 0.00 0.00 57 1015.0
20260510001935 64 76 0.0 0.0 0.00 0.00 0.00 55 1014.8
20260510001433 64 75 0.0 0.0 0.00 0.00 0.00 54 1014.7
20260510000931 65 75 0.0 0.0 0.00 0.00 0.00 54 1014.7
20260510000426 65 75 0.0 0.0 0.00 0.00 0.00 55 1014.6
20260509235923 66 350 0.0 1.0 0.00 0.00 0.00 56 1014.6
20260509235420 66 61 1.0 1.0 0.00 0.00 0.00 55 1014.4
20260509234916 66 59 0.0 0.0 0.00 0.00 0.00 52 1014.6
20260509234413 67 347 0.0 1.0 0.00 0.00 0.00 54 1014.7
20260509233911 67 108 0.0 1.0 0.00 0.00 0.00 52 1014.6
20260509233409 67 182 1.0 1.0 0.00 0.00 0.00 52 1014.7
20260509232904 67 5 0.0 1.0 0.00 0.00 0.00 51 1014.5
20260509232403 67 328 0.0 1.0 0.00 0.00 0.00 51 1014.6
20260509231858 68 40 1.0 1.0 0.00 0.00 0.00 50 1014.5
20260509231355 68 283 2.0 2.0 0.00 0.00 0.00 49 1014.6
20260509230853 69 22 2.0 2.0 0.00 0.00 0.00 49 1014.4
20260509230349 69 29 0.0 1.0 0.00 0.00 0.00 49 1014.3
20260509225845 69 279 1.0 2.0 0.00 0.00 0.00 48 1014.4